Location: ???????
(55.4362°N, 38.1183°E)
Time: 16:16:05
(UTC+00:00)

FENGYUN 1C DEB - Pass Details

Date: 04 February 2022
Orbit: 807 x 954 km, 100.9° (Epoch: 15 May)

Event Time Altitude Azimuth Distance (km) Brightness Sun altitude
Rises 23:31:04 0° 21° (NNE) 3,445 ? -45.3°
Reaches altitude 10° 23:33:26 10° 24° (NNE) 2,526 ? -45.1°
Enters shadow 23:34:13 14° 26° (NNE) 2,225 ? -45.0°
